View from above orbital plane
|
View from above satellite
|
Ground track
|
The orbit data is extracted from the following two-line orbital elements,
1 45874U 20046B 21059.81723868 0.00002500 00000-0 20672-3 0 00
2 45874 53.9731 16.1018 0003428 144.4361 215.5638 14.98475367 09
Epoch (UTC): | 28 February 2021 19:36:49 |
Eccentricity: | 0.0003428 |
inclination: | 53.9731° |
perigee height: | 569 km |
apogee height: | 574 km |
right ascension of ascending node: | 16.1018° |
argument of perigee: | 144.4361° |
revolutions per day: | 14.98475367 |
mean anomaly at epoch: | 215.5638° |
orbit number at epoch: | 0 |
The dashed part of the orbit path shows where the satellite is in the earth's shadow,
|
|